Tracking 29799 objects as of 11-Oct-2024
HD Live streaming from Space Station
objects crossing your sky now

AL FARABI 2

Track AL FARABI 2 now!
10-day predictions
AL FARABI 2 is classified as:


NORAD ID: 43805
Int'l Code: 2018-099AZ
Perigee: 516.7 km
Apogee: 528.5 km
Inclination: 97.5 °
Period: 94.9 minutes
Semi major axis: 6893 km
RCS: Unknown
Launch date: December 3, 2018
Source: Kazakhstan (KAZ)
Launch site: AIR FORCE WESTERN TEST RANGE (AFWTR)

Uplink (MHz):
Downlink (MHz): 436.500
Beacon (MHz): 436.500
Mode: 4800bps GMSK CW
Call sign: UN1GWA
Status: Inactive

Your satellite tracking list
Your tracking list is empty




NASA's NSSDC Master Catalog

Two Line Element Set (TLE):
1 43805U 18099AZ  24285.11861071  .00112859  00000-0  56557-2 0  9999
2 43805  97.4961 343.5960 0008515 245.8610 114.1733 15.16824558320373
Source of the keplerian elements: AMSAT